Waarnemingen

Advertentie
Mijn weer
Harstena, Zweden (2563): temperatuur & dauwpunt: 19.11.2017 02:00:00 - 25.11.2017 02:00:00 (CET)Harstena, Zweden (2563): windsnelheid & windstoten: 19.11.2017 02:00:00 - 25.11.2017 02:00:00 (CET)Harstena, Zweden (2563): windrichting: 19.11.2017 02:00:00 - 25.11.2017 02:00:00 (CET)Harstena, Zweden (2563): luchtdruk: 19.11.2017 02:00:00 - 25.11.2017 02:00:00 (CET)Harstena, Zweden (2563): zicht: 19.11.2017 02:00:00 - 25.11.2017 02:00:00 (CET)Harstena, Zweden (2563): neerslag: 19.11.2017 02:00:00 - 25.11.2017 02:00:00 (CET)
Datum & Tijd tt [°C] td [°C] ff [km/u] ff [kn] fx [km/u] fx [kn] dd ppp [hPa] vv [km] rr [mm]
25.11.2017 02:00:00 3,9 2,7 11 6 21 11 WZW 1006,3 33 0,0
25.11.2017 01:00:00 4,0 3,0 10 5 16 9 WZW 1005,8 23 0,0
25.11.2017 00:00:00 4,8 3,1 9 5 18 10 WZW 1005,7 31 0,0
24.11.2017 23:00:00 5,2 3,1 7 4 18 10 WZW 1005,4 38 0,0
24.11.2017 22:00:00 4,9 3,6 9 5 17 9 WZW 1005,1 29 0,0
24.11.2017 21:00:00 4,9 3,9 10 5 17 9 WZW 1005,0 20 0,0
24.11.2017 20:00:00 4,8 3,9 10 5 17 9 WZW 1004,8 19 0,0
24.11.2017 19:00:00 4,9 3,9 8 4 18 10 ZW 1004,8 19 0,0
24.11.2017 18:00:00 5,7 4,3 11 6 22 12 ZW 1004,6 22 0,0
24.11.2017 17:00:00 6,0 4,3 11 6 27 14 ZZW 1004,7 22 0,0
24.11.2017 16:00:00 6,2 4,5 15 8 27 15 ZZW 1004,6 27 0,0
24.11.2017 15:00:00 6,1 4,7 16 9 27 15 Z 1004,2 21 0,0
24.11.2017 14:00:00 6,3 4,6 17 9 29 16 ZZW 1004,5 23 0,0
24.11.2017 13:00:00 6,3 4,6 20 11 29 16 ZZW 1004,4 23 0,0
24.11.2017 12:00:00 6,3 4,8 17 9 30 16 ZZW 1004,3 21 0,0
24.11.2017 11:00:00 6,3 4,5 19 10 31 17 ZZW 1004,4 24 0,0
24.11.2017 10:00:00 6,1 4,1 16 9 36 20 ZZW 1003,9 24 0,0
24.11.2017 09:00:00 6,0 4,2 19 11 38 21 ZZW 1003,3 23 0,0
24.11.2017 08:00:00 6,1 3,9 26 14 42 23 ZZW 1002,8 23 0,0
24.11.2017 07:00:00 5,9 3,6 23 12 45 25 ZZW 1001,7 22 0,0
24.11.2017 06:00:00 6,2 3,7 29 16 50 27 ZZW 1001,0 23 0,0
24.11.2017 05:00:00 6,7 3,8 27 14 50 27 Z 1000,6 23 0,0
24.11.2017 04:00:00 7,0 3,8 27 15 43 23 Z 1000,2 23 0,0
24.11.2017 03:00:00 6,8 3,6 19 11 31 17 ZZW 1000,3 27 0,0
24.11.2017 02:00:00 7,0 3,2 17 9 53 28 ZW 1000,0 32 0,0
24.11.2017 01:00:00 7,4 6,0 16 9 53 28 ZZW 999,5 28 0,0
24.11.2017 00:00:00 7,7 6,5 22 12 44 24 ZZW 998,5 21 0,0
23.11.2017 23:00:00 7,7 6,3 28 15 44 24 Z 997,5 23 0,0
23.11.2017 22:00:00 6,9 6,0 22 12 44 24 Z 996,5 16 0,0
23.11.2017 21:00:00 7,3 6,1 29 16 44 24 Z 996,2 19 0,0
23.11.2017 20:00:00 6,9 6,0 27 14 51 28 Z 995,5 13 0,1
23.11.2017 19:00:00 7,0 5,8 29 15 59 32 Z 995,3 15 0,0
23.11.2017 18:00:00 7,3 5,9 38 20 59 32 Z 995,2 15 0,0
23.11.2017 17:00:00 7,2 6,3 31 17 51 27 Z 995,2 11 0,0
23.11.2017 16:00:00 7,3 6,4 27 15 47 25 ZZO 995,4 12 0,0
23.11.2017 15:00:00 7,2 6,3 24 13 47 25 Z 996,5 9 0,0
23.11.2017 14:00:00 7,2 6,3 25 14 49 26 Z 996,8 9 0,0
23.11.2017 13:00:00 7,1 6,0 26 14 49 26 Z 997,1 - 0,0
23.11.2017 12:00:00 6,9 6,0 24 13 47 25 Z 996,8 - 0,0
23.11.2017 11:00:00 6,9 6,0 29 16 45 24 Z 997,1 11 0,0
23.11.2017 10:00:00 6,8 6,2 27 14 51 27 Z 997,2 7 0,0
23.11.2017 09:00:00 6,7 6,3 24 13 51 27 Z 997,1 3,9 0,0
23.11.2017 08:00:00 6,9 6,5 29 16 49 26 Z 997,3 3,5 0,0
23.11.2017 07:00:00 7,2 6,9 25 13 44 24 Z 997,4 3,0 0,0
23.11.2017 06:00:00 7,4 7,1 23 12 43 23 Z 997,5 2,3 0,0
23.11.2017 05:00:00 7,6 7,3 24 13 43 23 Z 997,8 2,4 0,0
23.11.2017 04:00:00 7,4 7,1 24 13 37 20 Z 998,0 1,6 0,0
23.11.2017 03:00:00 7,4 7,1 25 13 44 24 Z 998,3 2,0 0,2
23.11.2017 02:00:00 7,4 7,1 24 13 54 29 Z 998,6 4,0 0,0
23.11.2017 01:00:00 7,2 6,9 27 15 58 31 ZZO 999,0 6 0,1
23.11.2017 00:00:00 6,6 6,3 36 19 67 36 ZZO 999,4 3,6 1,0
22.11.2017 23:00:00 6,2 5,9 42 23 67 36 ZZO 1000,0 5 1,7
22.11.2017 22:00:00 5,9 5,6 37 20 63 34 ZZO 1001,1 7 1,6
22.11.2017 21:00:00 5,7 5,4 34 19 64 35 ZZO 1002,0 6 0,8
22.11.2017 20:00:00 5,4 5,1 37 20 64 35 ZZO 1002,4 7 0,3
22.11.2017 19:00:00 5,2 4,9 38 20 62 34 ZZO 1003,6 6 0,4
22.11.2017 18:00:00 4,5 4,1 36 19 58 32 ZZO 1004,4 6 0,4
22.11.2017 17:00:00 4,1 3,5 34 18 53 29 ZO 1004,9 10 0,5
22.11.2017 16:00:00 3,9 3,5 31 17 51 28 ZO 1005,5 10 0,9
22.11.2017 15:00:00 3,4 2,5 32 17 51 28 ZZO 1006,4 4,9 0,7
22.11.2017 14:00:00 4,3 2,3 27 14 48 26 ZO 1006,8 32 0,1
22.11.2017 13:00:00 4,2 1,9 22 12 48 26 ZO 1007,3 50 0,2
22.11.2017 12:00:00 4,3 1,7 21 12 44 24 ZZO 1008,0 50 0,0
22.11.2017 11:00:00 4,0 1,5 23 12 36 20 ZO 1008,4 50 0,0
22.11.2017 10:00:00 3,5 0,9 21 11 34 19 ZO 1009,3 50 0,0
22.11.2017 09:00:00 2,4 1,2 18 10 31 17 ZO 1009,4 50 0,1
22.11.2017 08:00:00 2,9 0,0 18 10 30 16 OZO 1009,5 50 0,0
22.11.2017 07:00:00 2,1 -1,2 19 10 27 14 OZO 1010,0 50 0,0
22.11.2017 06:00:00 0,8 -1,8 12 7 20 11 OZO 1010,5 50 0,0
22.11.2017 05:00:00 0,1 -2,6 11 6 20 11 O 1011,0 50 0,0
22.11.2017 04:00:00 -0,2 -3,4 9 5 18 10 ONO 1011,3 50 0,0
22.11.2017 03:00:00 -0,6 -3,5 3 2 11 6 N 1011,8 50 0,0
22.11.2017 02:00:00 -0,7 -3,7 4 2 8 4 NNO 1012,0 50 0,0
22.11.2017 01:00:00 -0,8 -3,3 2 1 12 6 NNW 1012,2 50 0,0
22.11.2017 00:00:00 -0,8 -3,3 3 2 12 7 N 1012,3 50 0,0
21.11.2017 23:00:00 -0,7 -3,4 5 3 19 11 WNW 1012,6 50 0,0
21.11.2017 22:00:00 -0,7 -3,4 8 5 21 11 NW 1012,5 50 0,0
21.11.2017 21:00:00 -0,7 -3,2 9 5 21 11 NW 1011,9 50 0,0
21.11.2017 20:00:00 -0,9 -3,6 10 5 25 14 NW 1012,1 50 0,0
21.11.2017 19:00:00 -1,2 -3,9 11 6 25 14 NNW 1012,3 50 0,0
21.11.2017 18:00:00 -0,7 -3,4 13 7 24 13 NW 1012,1 50 0,0
21.11.2017 17:00:00 -0,3 -3,3 15 8 24 13 NNW 1011,7 50 0,0
21.11.2017 16:00:00 -0,4 -2,8 11 6 23 12 NW 1011,2 50 0,0
21.11.2017 15:00:00 -0,4 -2,9 13 7 25 13 NW 1011,0 50 0,0
21.11.2017 14:00:00 -0,2 -2,3 12 6 30 16 NNW 1011,1 50 0,0
21.11.2017 13:00:00 -0,6 -2,3 16 9 30 16 NNW 1011,0 50 0,0
21.11.2017 12:00:00 -0,7 -2,0 16 9 28 15 NW 1011,1 44 0,0
21.11.2017 11:00:00 -0,8 -1,8 17 9 26 14 NW 1011,2 4,6 0,0
21.11.2017 10:00:00 -1,0 -1,8 13 7 23 12 WNW 1010,9 14 0,1
21.11.2017 09:00:00 -1,1 -2,5 13 7 23 13 NW 1010,4 15 0,0
21.11.2017 08:00:00 -1,2 -2,6 14 8 23 13 NW 1010,1 50 0,0
21.11.2017 07:00:00 -1,1 -2,4 14 7 24 13 NW 1010,0 44 0,0
21.11.2017 06:00:00 -1,5 -2,8 16 9 24 13 NW 1010,0 50 0,0
21.11.2017 05:00:00 -1,6 -2,7 13 7 25 13 WNW 1010,1 50 0,0
21.11.2017 04:00:00 -1,8 -3,1 14 8 25 13 WNW 1010,1 50 0,0
21.11.2017 03:00:00 -1,7 -3,0 14 7 24 13 WNW 1010,1 50 0,0
21.11.2017 02:00:00 -1,6 -2,9 10 5 20 11 WNW 1010,0 50 0,0
21.11.2017 01:00:00 -2,0 -3,3 11 6 22 12 WNW 1010,0 50 0,0
21.11.2017 00:00:00 -2,2 -3,5 15 8 24 13 WNW 1010,0 50 0,0
20.11.2017 23:00:00 -2,4 -3,5 13 7 29 16 WNW 1010,3 50 0,0
20.11.2017 22:00:00 -2,2 -3,5 14 8 29 16 WNW 1010,2 50 0,0
20.11.2017 21:00:00 -2,1 -3,4 16 8 32 17 WNW 1009,9 50 0,0
20.11.2017 20:00:00 -1,7 -3,6 19 10 36 19 NW 1009,5 50 0,0
20.11.2017 19:00:00 -1,8 -3,2 18 10 36 19 WNW 1009,8 50 0,0
20.11.2017 18:00:00 -1,6 -3,2 16 9 32 17 WNW 1009,4 50 0,0
20.11.2017 17:00:00 -1,3 -3,2 18 10 29 16 WNW 1009,0 50 0,0
20.11.2017 16:00:00 -1,0 -3,2 16 9 28 15 WNW 1008,8 50 0,0
20.11.2017 15:00:00 -0,9 -3,3 14 7 31 17 WNW 1008,7 50 0,0
20.11.2017 14:00:00 -0,6 -3,1 18 10 36 19 WNW 1008,1 50 0,0
20.11.2017 13:00:00 -0,3 -2,7 19 11 37 20 NW 1007,9 50 0,0
20.11.2017 12:00:00 -0,5 -3,0 22 12 37 20 NW 1007,6 50 0,0
20.11.2017 11:00:00 -0,6 -2,7 16 9 36 20 NW 1007,5 50 0,0
20.11.2017 10:00:00 -0,8 -2,7 19 10 35 19 NNW 1007,2 50 0,0
20.11.2017 09:00:00 -0,4 -1,7 21 12 39 21 NNW 1006,5 50 0,0
20.11.2017 08:00:00 -0,5 -1,3 21 11 39 21 NW 1005,7 5 0,1
20.11.2017 07:00:00 -0,5 -1,2 23 12 38 21 NNW 1005,1 7 0,3
20.11.2017 06:00:00 -0,6 -1,2 20 11 38 21 NW 1004,5 2,7 0,1
20.11.2017 05:00:00 -0,9 -1,5 20 11 38 21 NW 1004,0 1,1 0,1
20.11.2017 04:00:00 -0,4 -2,9 21 12 37 20 NW 1003,8 27 0,0
20.11.2017 03:00:00 -0,5 -3,2 23 12 36 20 NW 1003,5 50 0,0
20.11.2017 02:00:00 -0,5 -3,2 17 9 40 21 NW 1003,4 50 0,0
20.11.2017 01:00:00 -0,5 -3,7 20 11 40 21 NW 1003,4 50 0,0
20.11.2017 00:00:00 -0,4 -4,3 21 11 37 20 NW 1003,3 50 0,0
19.11.2017 23:00:00 -0,8 -4,7 24 13 37 20 NW 1003,3 50 0,0
19.11.2017 22:00:00 -1,0 -4,3 16 9 39 21 NW 1003,2 50 0,0
19.11.2017 21:00:00 -1,4 -4,4 22 12 39 21 NNW 1002,8 50 0,0
19.11.2017 20:00:00 -1,3 -3,8 19 11 39 21 NNW 1002,2 50 0,0
19.11.2017 19:00:00 -1,1 -3,6 22 12 44 24 NNW 1001,7 50 0,0
19.11.2017 18:00:00 -0,4 -2,8 26 14 51 28 N 1001,0 50 0,0
19.11.2017 17:00:00 0,4 -2,1 26 14 51 28 N 1000,2 50 0,0
19.11.2017 16:00:00 1,1 -1,3 27 14 50 27 N 999,3 50 0,0
19.11.2017 15:00:00 1,9 -0,8 27 15 51 28 N 998,6 50 0,0
19.11.2017 14:00:00 2,3 -0,1 26 14 51 28 N 997,6 50 0,0
19.11.2017 13:00:00 2,7 0,6 29 16 51 27 N 996,9 50 0,0
19.11.2017 12:00:00 3,2 0,9 27 15 51 27 NNO 996,2 50 0,0
19.11.2017 11:00:00 3,2 1,1 26 14 49 26 NO 995,6 47 0,1
19.11.2017 10:00:00 4,2 2,1 26 14 45 24 NNO 994,8 50 0,0
19.11.2017 09:00:00 4,6 1,4 20 11 27 15 O 994,0 50 0,4
19.11.2017 08:00:00 4,2 2,4 16 9 27 14 ONO 993,6 12 0,9
19.11.2017 07:00:00 4,5 2,7 14 8 27 14 OZO 993,3 37 0,1
19.11.2017 06:00:00 4,1 2,1 11 6 21 12 OZO 993,2 36 0,0
19.11.2017 05:00:00 3,7 2,4 9 5 19 11 ZO 993,3 35 0,0
19.11.2017 04:00:00 3,2 2,2 9 5 18 10 ZO 993,3 35 0,0
19.11.2017 03:00:00 2,1 1,4 8 5 22 12 ZZO 993,3 20 0,0
19.11.2017 02:00:00 1,8 1,4 11 6 22 12 ZW 994,0 18 0,0

tt = temperatuur
td = dauwpunt
ff = windsnelheid
fx = windstoten
dd = windrichting
ppp = luchtdruk
vv = zicht
rr = neerslag

Weerstations in de omgeving